Tracking 18624 objects as of 30-April-2017
HD Live streaming from Space Station
objects crossing your sky now

GORIZONT 30

Track GORIZONT 30 now!
GORIZONT 30 is classified as:


NORAD ID: 23108
Int'l Code: 1994-030A
Perigee: 35,790.4 km
Apogee: 35,830.6 km
Inclination: 14.7 °
Period: 1,437.0 minutes
Semi major axis: 42181 km
RCS: 12.5892 m2 (large)
Launch date: May 20, 1994
Source: Commonwealth of Independent States (former USSR) (CIS)
Launch site: TYURATAM MISSILE AND SPACE COMPLEX (TTMTR)
Your satellite tracking list
Your tracking list is empty





NASA's NSSDC Master Catalog

Two Line Element Set (TLE):
1 23108U 94030A   17118.42577931 +.00000084 +00000-0 +00000-0 0  9998
2 23108 014.6608 017.0460 0004766 228.5605 321.9348 01.00212161084017
Source of the keplerian elements: AFSPC